Regional Weather Roundup
Issued by NWS Little Rock, AR

Home | Current Version | Previous Version | Graphics & Text | Print | Product List | Glossary On
Versions: 1 2 3 4 5 6 7 8 9 10 11 12 13 14 15 16 17 18 19 20 21 22 23 24 25 26 27 28 29 30 31 32 33 34 35 36 37 38 39 40 41 42 43 44 45 46 47 48 49 50
276
ASUS44 KLZK 060805
RWRLZK

WEATHER ROUNDUP FOR ARKANSAS
NATIONAL WEATHER SERVICE LITTLE ROCK AR
200 AM CST TUE DEC 06 2016

NOTE: "FAIR" INDICATES FEW OR NO CLOUDS BELOW 12,000 FEET WITH NO
SIGNIFICANT WEATHER AND/OR OBSTRUCTIONS TO VISIBILITY.

ARZ001-003-010-029-060900-
NORTHWEST ARKANSAS

CITY           SKY/WX    TMP DP  RH WIND       PRES   REMARKS
FAYETTEVILLE   LGT RAIN  44  42  93 NW3       29.76R
FORT SMITH     LGT RAIN  45  43  93 N3        29.76R
HARRISON       CLOUDY    39  39 100 NW3       29.74R
BENTONVILLE    CLOUDY    43  36  75 N5        29.77R
ROGERS         CLOUDY    42  39  89 NW5       29.77R
SILOAM SPGS    CLOUDY    43  37  81 N6        29.76R
HIGHFILL       CLOUDY    43  40  89 NW5       29.76R
$$

ARZ004-005-016-060900-
NORTH CENTRAL ARKANSAS

CITY           SKY/WX    TMP DP  RH WIND       PRES   REMARKS
BATESVILLE     CLOUDY    41  39  93 W3        29.73R
FLIPPIN        CLOUDY    41  36  81 N3        29.72R
MTN HOME       RAIN      39  39 100 VRB3      29.73R FOG
$$

ARZ040-041-060900-
WEST CENTRAL ARKANSAS

CITY           SKY/WX    TMP DP  RH WIND       PRES   REMARKS
MENA           CLOUDY    46  46 100 CALM      29.73F
$$

ARZ009-017-025-026-028-060900-
NORTHEAST ARKANSAS

CITY           SKY/WX    TMP DP  RH WIND       PRES   REMARKS
CORNING        LGT RAIN  41  41 100 N8        29.72R
JONESBORO      LGT RAIN  42  41  96 N7        29.67F
NEWPORT        LGT RAIN  42  41  96 N9        29.70F FOG
WALNUT RIDGE   CLOUDY    41  37  87 N10       29.71S
BLYTHEVILLE    LGT RAIN  45  43  93 NE8       29.66F
$$

ARZ022-023-033-042-044-060900-
CENTRAL ARKANSAS

CITY           SKY/WX    TMP DP  RH WIND       PRES   REMARKS
LITTLE ROCK    LGT RAIN  43  43 100 NW12      29.69F FOG
N LITTLE ROCK    N/A     42  42  97 N6        29.71F
JACKSONVILLE   LGT RAIN  44  43  99 NW8       29.67F
SEARCY         LGT RAIN  43  43 100 VRB6      29.72  FOG
HOT SPRINGS    LGT RAIN  45  45 100 W6        29.72R FOG
RUSSELLVILLE   LGT RAIN  44  42  93 W3        29.73R FOG
CLINTON        DRIZZLE   43  41  93 NW6       29.74R
$$

ARZ036-060900-
EAST ARKANSAS

CITY           SKY/WX    TMP DP  RH WIND       PRES   REMARKS
WEST MEMPHIS   TSTM      45  44  97 NE12      29.62F FOG
$$

ARZ050-053-066-070-073-060900-
SOUTHWEST ARKANSAS

CITY           SKY/WX    TMP DP  RH WIND       PRES   REMARKS
ARKADELPHIA    LGT RAIN  45  45 100 W3        29.75R FOG
CAMDEN         RAIN      45  43  93 W5        29.74R
TEXARKANA      CLOUDY    46  45  96 NW3       29.75R
EL DORADO      RAIN      46  45  96 W3        29.73F
DE QUEEN       CLOUDY    47  47 100 CALM      29.72F
$$

ARZ056-057-069-060900-
SOUTHEAST ARKANSAS

CITY           SKY/WX    TMP DP  RH WIND       PRES   REMARKS
PINE BLUFF     LGT RAIN  45  44  97 NW3       29.70R
STUTTGART      MOCLDY    45  39  81 N9        29.67F
MONTICELLO     HVY RAIN  47  45  93 W9        29.69R FOG

$$






USA.gov is the U.S. government's official web portal to all federal, state and local government web resources and services.